TimeMST,TemperatureF,Dew PointF,Humidity,Sea Level PressureIn,VisibilityMPH,Wind Direction,Wind SpeedMPH,Gust SpeedMPH,PrecipitationIn,Events,Conditions,WindDirDegrees,DateUTC
12:17 AM,21.9,19.0,89,29.62,2.0,SSW,13.8,-,0.00,Snow,Light Snow,200,2013-12-08 07:17:00
12:25 AM,21.9,19.0,89,29.61,1.8,SSW,13.8,-,0.00,Snow,Light Snow,200,2013-12-08 07:25:00
12:27 AM,21.9,19.0,89,29.61,2.0,SSW,13.8,-,0.00,Snow,Light Snow,200,2013-12-08 07:27:00
12:38 AM,21.9,19.0,89,29.61,3.0,SSW,12.7,-,0.00,Snow,Light Snow,200,2013-12-08 07:38:00
12:48 AM,21.2,19.4,93,29.60,1.8,SSW,12.7,-,0.00,Snow,Light Snow,200,2013-12-08 07:48:00
12:52 AM,21.9,19.0,89,29.66,1.2,SSW,11.5,-,0.00,Snow,Light Snow,200,2013-12-08 07:52:00
1:05 AM,19.9,18.0,92,29.59,3.0,South,10.4,-,0.00,Snow,Light Snow,180,2013-12-08 08:05:00
1:52 AM,21.0,18.0,88,29.64,5.0,SSW,17.3,21.9,0.01,Snow,Light Snow,200,2013-12-08 08:52:00
2:01 AM,21.0,18.0,88,29.58,2.5,SSW,20.7,-,0.00,Snow,Light Snow,210,2013-12-08 09:01:00
2:08 AM,21.0,19.0,92,29.57,3.0,SSW,17.3,-,0.00,Snow,Light Snow,210,2013-12-08 09:08:00
2:12 AM,21.0,19.0,92,29.57,2.5,SSW,17.3,-,0.00,Snow,Light Snow,210,2013-12-08 09:12:00
2:21 AM,19.9,17.1,89,29.56,5.0,SSW,17.3,-,0.00,Snow,Light Snow,210,2013-12-08 09:21:00
2:38 AM,18.0,16.0,92,29.56,10.0,South,11.5,-,0.00,,Scattered Clouds,190,2013-12-08 09:38:00
2:52 AM,17.1,14.0,88,29.66,10.0,South,11.5,-,0.00,,Partly Cloudy,190,2013-12-08 09:52:00
3:45 AM,19.9,16.0,85,29.59,2.5,WNW,6.9,-,0.00,Snow,Light Snow,290,2013-12-08 10:45:00
3:52 AM,19.9,17.1,89,29.68,2.0,WSW,8.1,-,0.00,Snow,Light Snow,250,2013-12-08 10:52:00
4:07 AM,19.0,16.0,88,29.58,5.0,West,3.5,-,0.00,Snow,Light Snow,280,2013-12-08 11:07:00
4:18 AM,17.1,15.1,92,29.58,10.0,WSW,4.6,-,0.00,,Overcast,240,2013-12-08 11:18:00
4:52 AM,17.1,12.9,84,29.68,10.0,West,11.5,-,0.00,,Mostly Cloudy,270,2013-12-08 11:52:00
5:52 AM,19.0,10.9,71,29.69,10.0,WSW,13.8,-,N/A,,Overcast,240,2013-12-08 12:52:00
6:52 AM,19.0,8.1,62,29.72,10.0,WSW,13.8,20.7,N/A,,Mostly Cloudy,240,2013-12-08 13:52:00
7:52 AM,18.0,3.9,54,29.77,10.0,West,16.1,31.1,N/A,,Overcast,260,2013-12-08 14:52:00
8:52 AM,17.1,5.0,59,29.81,9.0,WSW,23.0,29.9,N/A,,Clear,250,2013-12-08 15:52:00
9:52 AM,18.0,3.9,54,29.85,10.0,WSW,16.1,-,N/A,,Clear,240,2013-12-08 16:52:00
10:52 AM,19.0,3.0,50,29.85,10.0,WSW,19.6,-,N/A,,Clear,240,2013-12-08 17:52:00
11:52 AM,19.9,1.9,46,29.84,10.0,WSW,21.9,-,N/A,,Clear,250,2013-12-08 18:52:00
12:52 PM,21.0,1.9,44,29.83,10.0,West,20.7,-,N/A,,Clear,260,2013-12-08 19:52:00
1:52 PM,21.0,1.9,44,29.85,10.0,West,12.7,-,N/A,,Clear,280,2013-12-08 20:52:00
2:52 PM,19.9,-0.0,42,29.87,10.0,West,12.7,-,N/A,,Clear,280,2013-12-08 21:52:00
3:52 PM,18.0,-0.0,45,29.89,10.0,Variable,5.8,-,N/A,,Clear,0,2013-12-08 22:52:00
4:52 PM,14.0,-4.0,45,29.92,10.0,Calm,Calm,-,N/A,,Clear,0,2013-12-08 23:52:00
5:52 PM,8.1,-4.0,58,29.97,10.0,South,12.7,-,N/A,,Clear,180,2013-12-09 00:52:00
6:52 PM,3.0,-7.1,63,30.03,10.0,South,10.4,-,N/A,,Clear,170,2013-12-09 01:52:00
7:52 PM,-0.0,-8.0,69,30.07,10.0,North,4.6,-,N/A,,Clear,10,2013-12-09 02:52:00
8:52 PM,-4.0,-11.0,72,30.12,10.0,SSW,4.6,-,N/A,,Clear,200,2013-12-09 03:52:00
9:52 PM,-7.1,-11.0,83,30.14,10.0,NE,3.5,-,N/A,,Clear,50,2013-12-09 04:52:00
10:52 PM,-7.1,-14.1,72,30.14,10.0,NNE,3.5,-,N/A,,Clear,20,2013-12-09 05:52:00
11:52 PM,-9.0,-15.0,75,30.15,10.0,SW,4.6,-,N/A,,Clear,220,2013-12-09 06:52:00